Home > Weather > Altenburg > Past weeks

Flag for Germany Past Weather in Altenburg, Thuringia, Germany — Yesterday and Last 2 Weeks

Now
72 °F

Sunny.


Feels Like: 77 °F
Forecast: 57 / 71 °F
Wind: 9 mph from West

Location: Altenburg Nobitz

Current Time: Jun 27, 2016 at 8:36:38 PM

Latest Report: Jun 27, 2016 at 7:20 PM


Visibility: 10 mi

Pressure: 30.07 "Hg

Humidity: 41%

Dew Point: 46 °F

Location of AltenburgLocation

Past Weather in Altenburg — Graph

°F

Altenburg Temperature Yesterday

Maximum temperature yesterday: 73 °F (at 5:20 PM)
Minimum temperature yesterday: 63 °F (at 8:50 AM)
Average temperature yesterday: 69 °F

High & Low Weather Summary for the Past Weeks

 TemperatureHumidityPressure
High93 °F (Jun 24, 2:50 PM)100% (Jun 17, 7:50 AM)30.21 "Hg (Jun 17, 7:50 AM)
Low57 °F (Jun 17, 7:50 AM)30% (Jun 24, 4:20 PM)29.53 "Hg (Jun 13, 3:50 PM)
Average70 °F61%29.93 "Hg
* Reported Jun 12 6:20 PM — Jun 27 6:50 PM, Altenburg, Weather by CustomWeather, © 2016

Note: Actual official high and low records may vary slightly from our data, if they occured in-between our weather recording intervals... More about our weather records

Advertising

Altenburg Weather History for the Previous 24 Hours

Scroll right to see more
 ConditionsComfort  
Time TempWeatherWind HumidityBarometerVisibility
6:50 PM
Mon, Jun 27
72 °FSunny.8 mph41%30.04 "Hg10 mi
6:20 PM73 °FPassing clouds.8 mph38%30.04 "HgN/A
5:50 PM73 °FPassing clouds.10 mph38%30.04 "HgN/A
5:20 PM72 °FSunny.7 mph44%30.07 "Hg10 mi
4:50 PM72 °FPassing clouds.7 mph44%30.07 "HgN/A
4:20 PM73 °FPassing clouds.10 mph41%30.07 "HgN/A
3:50 PM73 °FPassing clouds.7 mph44%30.07 "HgN/A
3:20 PM72 °FSunny.8 mph44%30.07 "Hg10 mi
2:50 PM70 °FPassing clouds.9 mph50%30.07 "HgN/A
2:20 PM70 °FScattered clouds.7 mph43%30.07 "HgN/A
1:50 PM72 °FScattered clouds.8 mph44%30.07 "HgN/A
1:20 PM72 °FScattered clouds.6 mph47%30.09 "HgN/A
12:50 PM70 °FScattered clouds.8 mph50%30.09 "HgN/A
12:20 PM70 °FScattered clouds.9 mph46%30.09 "HgN/A
11:50 AM70 °FScattered clouds.9 mph46%30.09 "HgN/A
11:20 AM68 °FScattered clouds.7 mph53%30.09 "HgN/A
10:50 AM66 °FPassing clouds.8 mph52%30.12 "HgN/A
10:20 AM66 °FPassing clouds.7 mph56%30.12 "HgN/A
9:50 AM63 °FScattered clouds.6 mph64%30.12 "HgN/A
9:20 AM61 °FPassing clouds.8 mph68%30.12 "HgN/A
8:50 AM63 °FPassing clouds.8 mph64%30.12 "HgN/A
8:20 AM61 °FSunny.6 mph72%30.12 "Hg10 mi
7:50 AM59 °FSunny.6 mph77%30.09 "Hg10 mi
Weather by CustomWeather, © 2016

See weather overviewHow to use our weather pages